User: anonymous   Login
Location: Unspecified
(0.0000°N, 0.0000°E)
Time: 14:16:15
(UTC+00:00)
Language:

Telecom 1A - Orbit

View from above orbital plane
View from above orbital plane
View from above satellite
View from above satellite

Ground track
Ground track

The orbit data is extracted from the following two-line orbital elements,

1 15159U 84081B   18113.97958848 -.00000232  00000-0  00000+0 0  9991
2 15159  15.5240 358.2888 0039420 333.8462 206.4312  0.98399940 89319
Epoch (UTC): 23 April 2018 23:30:36
Eccentricity: 0.0039420
inclination: 15.5240°
perigee height: 36151 km
apogee height: 36487 km
right ascension of ascending node: 358.2888°
argument of perigee: 333.8462°
revolutions per day: 0.98399940
mean anomaly at epoch: 206.4312°
orbit number at epoch: 8931

The dashed part of the orbit path shows where the satellite is in the earth's shadow,  

DLR